Probability
10 45 97 100 100 100 100 100 100 100 100 100 100 100 100 100 100 100 100 100 100 100 100 94 90 84 94 84 84 84 81 81 77 84 87 84 84 77 71 81 77 71 81
10 48 100 100 100 100 100 100 100 100 100 100 100 100 100 100 100 100 100 100 100 100 97 90 94 87 87 84 87 87 87 81 81 87 84 87 87 81 81 71 81 81 74
26 58 94 100 100 100 100 100 100 100 100 100 100 100 100 100 100 100 100 100 97 94 94 94 90 90 87 90 90 94 90 90 87 81 81 71 71 81 84 87 84 81 84
29 68 90 100 100 100 100 100 100 100 100 100 100 100 100 100 100 100 100 94 94 94 90 90 90 90 90 94 90 97 94 90 84 87 68 58 65 77 87 84 84 81 87
68 94 97 100 100 100 100 100 100 100 100 100 100 100 100 100 100 100 100 94 94 94 94 90 94 90 90 94 94 94 94 84 61 58 61 68 87 90 90 81 81 81 90
71 77 97 100 100 100 100 100 100 100 100 100 100 100 100 100 100 100 100 97 97 97 97 100 97 97 94 94 94 94 87 68 52 32 48 68 84 87 94 81 81 87 87
58 77 90 100 100 100 100 100 100 100 100 100 100 100 100 100 100 100 100 100 100 94 97 97 97 97 90 87 90 77 71 48 35 39 48 61 87 87 84 84 94 87 87
65 71 100 100 100 100 100 100 100 100 100 100 100 100 100 100 100 100 100 97 97 100 94 90 90 90 94 87 90 81 61 42 23 26 48 68 84 90 90 94 97 87 84
58 77 94 97 100 100 100 100 100 100 100 100 100 97 97 97 97 97 97 97 90 97 94 84 90 94 87 87 87 81 61 39 10 32 29 71 84 87 87 87 87 87 90
68 74 97 84 100 100 100 100 100 100 100 100 100 97 97 97 97 97 97 97 87 81 77 77 81 90 90 81 84 77 58 35 6 10 35 58 84 84 84 81 77 84 90
77 81 81 84 100 94 97 97 100 100 100 100 100 97 100 87 77 97 87 94 87 84 77 77 77 90 77 81 71 65 52 13 6 13 42 77 87 81 74 68 74 77 77
94 90 87 84 97 97 77 94 94 87 90 90 97 90 90 90 81 71 94 84 81 77 74 68 71 68 61 71 55 48 35 16 13 19 48 81 81 77 68 68 68 68 68
100 94 87 97 97 97 97 90 90 87 94 87 90 84 94 77 55 61 74 74 77 71 48 55 45 39 26 45 42 35 32 16 16 19 58 68 77 71 74 71 65 52 61
94 97 87 94 97 97 97 97 90 87 84 77 87 84 77 71 68 65 74 55 58 65 61 35 58 45 45 35 32 32 19 16 13 35 87 68 68 71 68 68 68 58 61
90 94 90 94 90 90 90 87 71 81 71 84 87 81 77 61 61 71 77 74 42 42 45 48 45 61 48 42 29 23 16 19 13 23 65 74 74 68 65 68 74 55 58
87 94 94 90 87 84 87 90 84 71 90 81 77 81 84 61 61 61 68 71 48 42 35 35 39 52 45 45 39 32 26 16 26 39 45 71 74 77 68 65 58 65 58
90 90 94 87 84 84 84 77 71 65 71 74 87 90 74 68 71 65 48 58 48 35 52 61 48 42 45 39 39 42 29 29 35 35 26 45 55 65 77 71 65 61 52
90 94 94 81 84 87 81 77 68 65 55 71 68 77 68 68 71 84 55 55 52 48 55 52 42 48 42 52 48 45 35 48 32 32 26 32 39 29 55 71 61 61 52
87 94 90 81 87 87 87 77 77 81 71 74 61 61 68 68 68 65 71 68 71 58 52 45 35 45 48 42 35 52 26 32 42 26 26 16 23 35 45 71 74 77 58
87 90 87 94 94 90 87 84 77 77 71 74 65 68 68 71 71 68 71 77 61 55 52 61 48 58 45 48 6 16 26 29 26 26 26 19 26 19 13 35 65 68 71
87 87 97 94 94 94 90 84 81 77 74 71 68 52 55 61 61 74 58 81 68 61 58 39 55 45 35 39 29 19 19 16 19 35 32 29 26 16 19 26 39 52 65
97 94 94 90 90 90 87 87 81 87 71 61 61 61 58 58 61 55 81 61 61 68 68 65 65 58 35 29 32 32 29 29 48 3 23 29 13 10 16 19 32 45 35
97 94 84 90 90 87 87 77 68 74 65 52 55 61 55 65 61 68 65 65 65 58 65 71 68 61 42 42 29 29 26 23 16 10 19 16 26 26 23 19 26 42 39
97 90 94 94 87 84 81 71 58 58 48 52 55 65 58 65 61 58 61 58 68 61 71 58 52 61 55 45 26 39 16 26 16 13 16 10 16 32 29 10 13 23 32
87 87 90 90 81 74 71 71 68 58 58 55 58 58 61 61 58 61 61 61 68 58 55 52 58 58 48 45 32 32 35 35 13 26 19 16 10 10 16 26 16 19 23
77 77 77 74 77 68 68 65 65 58 61 48 58 55 65 61 52 52 55 58 58 48 45 48 58 52 52 58 55 35 32 35 23 13 10 16 16 10 3 23 10 13 19
Height
5900 5900 5900 5900 5900 5900 5899 5899 5899 5899 5899 5899 5899 5899 5900 5900 5900 5900 5900 5900 5901 5901 5901 5901 5902 5901 5901 5901 5902 5902 5902 5902 5902 5902 5901 5901 5901 5901 5901 5901 5901 5901 5901
5901 5901 5901 5901 5901 5901 5900 5900 5900 5900 5900 5900 5900 5900 5900 5900 5901 5901 5901 5901 5901 5902 5902 5902 5902 5902 5902 5902 5902 5902 5902 5902 5902 5902 5902 5902 5902 5902 5902 5902 5902 5902 5902
5902 5901 5901 5902 5902 5901 5901 5901 5901 5901 5901 5901 5901 5901 5901 5901 5901 5902 5902 5902 5902 5902 5902 5902 5902 5902 5902 5903 5903 5903 5903 5903 5903 5903 5903 5903 5903 5903 5903 5903 5903 5903 5903
5902 5902 5902 5902 5902 5902 5902 5902 5902 5902 5901 5901 5901 5902 5902 5902 5902 5902 5902 5902 5902 5902 5902 5903 5903 5903 5903 5903 5903 5904 5904 5904 5904 5904 5904 5904 5904 5904 5904 5904 5904 5904 5904
5903 5903 5903 5903 5903 5902 5902 5902 5902 5902 5902 5902 5902 5902 5902 5903 5903 5903 5903 5903 5903 5903 5903 5903 5903 5903 5904 5904 5904 5904 5904 5905 5905 5905 5905 5905 5905 5905 5905 5905 5905 5905 5905
5904 5903 5903 5903 5903 5903 5903 5903 5903 5903 5903 5903 5903 5903 5903 5903 5903 5903 5903 5903 5903 5903 5903 5904 5904 5904 5904 5904 5904 5905 5905 5905 5905 5905 5905 5905 5905 5905 5906 5906 5906 5906 5906
5905 5904 5904 5904 5903 5903 5903 5903 5903 5904 5904 5904 5904 5904 5904 5904 5904 5904 5904 5904 5904 5904 5904 5904 5904 5905 5905 5905 5905 5905 5906 5906 5906 5906 5906 5906 5906 5906 5906 5906 5907 5907 5907
5905 5905 5904 5904 5903 5903 5903 5903 5904 5904 5904 5904 5904 5904 5904 5904 5904 5904 5904 5904 5904 5904 5904 5905 5905 5905 5905 5905 5906 5906 5906 5906 5907 5907 5907 5907 5907 5907 5907 5907 5907 5907 5907
5906 5905 5905 5904 5903 5903 5903 5903 5903 5904 5904 5904 5905 5905 5905 5904 5904 5904 5905 5905 5905 5905 5905 5905 5905 5906 5906 5906 5906 5906 5907 5907 5907 5907 5907 5907 5907 5908 5908 5908 5908 5908 5908
5907 5906 5905 5904 5903 5903 5903 5903 5903 5904 5904 5904 5905 5905 5905 5905 5905 5905 5905 5905 5905 5905 5905 5905 5906 5906 5906 5906 5907 5907 5907 5907 5907 5907 5908 5908 5908 5908 5908 5908 5908 5908 5908
5908 5907 5906 5904 5903 5902 5902 5902 5903 5903 5904 5904 5904 5905 5905 5905 5905 5905 5905 5905 5905 5906 5906 5906 5906 5906 5906 5907 5907 5907 5907 5907 5907 5907 5908 5908 5908 5908 5908 5908 5909 5909 5909
5909 5907 5906 5905 5903 5902 5902 5902 5902 5903 5903 5904 5904 5905 5905 5905 5905 5905 5905 5906 5906 5906 5906 5906 5906 5906 5907 5907 5907 5907 5907 5907 5907 5907 5908 5908 5908 5908 5908 5908 5909 5909 5909
5909 5908 5906 5905 5904 5903 5902 5902 5902 5902 5903 5904 5904 5905 5905 5905 5905 5905 5905 5906 5906 5907 5907 5907 5907 5907 5907 5907 5907 5907 5907 5907 5907 5908 5908 5908 5908 5908 5908 5908 5908 5908 5908
5910 5908 5907 5905 5904 5903 5902 5902 5901 5902 5903 5903 5904 5904 5905 5905 5905 5905 5906 5906 5907 5907 5907 5907 5907 5907 5907 5907 5908 5908 5908 5908 5908 5908 5908 5908 5908 5908 5908 5908 5908 5908 5908
5911 5909 5907 5906 5905 5903 5902 5901 5901 5902 5902 5903 5904 5904 5905 5905 5905 5905 5906 5906 5907 5907 5907 5907 5907 5907 5907 5907 5908 5908 5908 5908 5908 5907 5907 5907 5908 5908 5908 5908 5908 5908 5908
5911 5909 5907 5906 5904 5903 5902 5901 5901 5901 5901 5902 5903 5904 5904 5905 5905 5906 5906 5907 5907 5907 5907 5907 5907 5907 5907 5908 5908 5908 5908 5908 5907 5907 5907 5907 5907 5907 5908 5908 5908 5907 5907
5911 5909 5907 5906 5904 5903 5902 5901 5900 5900 5900 5901 5902 5903 5904 5904 5905 5905 5906 5907 5907 5907 5907 5907 5907 5907 5908 5908 5908 5908 5908 5907 5907 5907 5907 5907 5907 5907 5907 5907 5907 5907 5907
5911 5909 5907 5905 5904 5903 5902 5901 5900 5900 5900 5901 5901 5902 5903 5903 5904 5905 5906 5906 5906 5907 5907 5907 5907 5907 5907 5908 5908 5908 5908 5907 5907 5907 5907 5906 5906 5906 5906 5906 5907 5906 5906
5911 5908 5907 5905 5904 5902 5901 5901 5900 5900 5900 5900 5900 5901 5902 5902 5903 5904 5905 5905 5906 5906 5906 5907 5907 5907 5907 5908 5908 5908 5907 5907 5907 5907 5907 5906 5906 5906 5906 5906 5906 5906 5905
5910 5908 5906 5905 5903 5902 5901 5900 5900 5899 5899 5899 5899 5900 5900 5901 5902 5903 5904 5905 5905 5906 5906 5907 5907 5907 5907 5907 5907 5908 5908 5908 5907 5907 5907 5906 5906 5905 5905 5905 5905 5905 5904
5910 5908 5906 5905 5903 5902 5901 5900 5899 5899 5899 5899 5899 5899 5899 5900 5901 5902 5903 5904 5904 5905 5906 5906 5907 5907 5907 5907 5907 5907 5907 5907 5907 5907 5906 5906 5905 5905 5905 5904 5904 5904 5903
5910 5907 5906 5904 5903 5901 5900 5899 5898 5898 5898 5898 5898 5898 5898 5899 5899 5900 5902 5902 5903 5904 5905 5905 5906 5906 5906 5907 5907 5907 5907 5908 5906 5906 5906 5905 5905 5904 5904 5903 5903 5902 5902
5909 5907 5905 5903 5902 5901 5899 5898 5897 5897 5897 5897 5897 5897 5897 5897 5898 5899 5900 5901 5902 5903 5903 5904 5905 5905 5906 5906 5906 5906 5907 5906 5906 5906 5905 5904 5904 5903 5903 5902 5902 5901 5901
5908 5906 5904 5903 5901 5900 5899 5898 5897 5896 5896 5895 5895 5895 5896 5896 5897 5897 5898 5899 5900 5901 5902 5902 5903 5904 5904 5905 5905 5905 5905 5905 5904 5904 5904 5903 5902 5902 5901 5901 5900 5900 5899
5907 5905 5903 5902 5900 5899 5897 5896 5895 5894 5894 5893 5893 5893 5894 5895 5895 5896 5896 5897 5898 5899 5900 5901 5902 5902 5902 5903 5903 5903 5903 5903 5902 5902 5902 5901 5901 5900 5899 5899 5898 5898 5897
5906 5904 5902 5900 5899 5898 5896 5895 5894 5893 5892 5892 5891 5892 5892 5893 5893 5894 5894 5895 5896 5897 5898 5898 5899 5900 5900 5901 5901 5901 5901 5901 5900 5900 5900 5899 5898 5898 5897 5897 5896 5895 5895
Wind_Speed
7 7 6 6 6 7 7 8 9 10 10 11 11 11 11 10 10 10 9 8 7 6 6 5 5 5 4 4 4 4 4 4 4 4 4 4 4 5 6 6 6 6 6
7 6 5 6 6 6 7 8 9 9 10 10 10 10 10 10 9 9 8 8 7 6 5 5 5 4 4 4 4 4 4 4 4 4 4 4 4 5 5 6 6 6 6
6 5 5 4 5 5 6 7 8 8 9 9 9 9 9 9 8 8 8 7 6 5 5 5 4 4 4 4 4 4 4 4 4 4 4 4 4 4 5 5 5 5 6
6 5 4 3 4 5 5 6 7 8 8 8 9 9 8 8 8 7 7 6 6 5 5 5 4 4 4 4 4 4 4 4 4 4 4 3 3 4 4 4 4 4 5
6 5 4 3 3 4 5 6 6 7 8 8 8 8 8 7 7 7 6 6 6 5 5 5 4 4 4 4 4 4 3 4 4 4 3 3 3 4 4 4 4 4 5
6 5 3 3 4 4 5 5 6 7 8 8 8 8 8 7 7 7 7 6 6 6 5 5 5 5 4 4 4 4 4 4 4 4 3 3 3 3 3 3 4 4 4
6 5 4 3 3 4 4 5 6 6 7 8 7 7 7 7 7 7 7 6 6 6 5 5 5 5 4 4 4 4 4 4 4 4 3 3 3 3 3 3 4 4 4
7 5 4 3 3 3 4 4 5 6 6 7 7 7 7 7 7 7 6 6 6 6 6 6 5 5 5 4 4 5 5 4 4 3 3 2 2 3 2 2 3 3 3
9 7 5 3 2 2 3 4 5 6 6 6 6 6 6 6 6 6 5 5 5 6 6 6 5 5 5 5 4 4 4 3 3 3 2 2 2 2 2 2 2 3 3
10 8 6 5 3 1 2 3 4 5 5 5 6 6 5 5 5 5 5 5 5 5 5 5 5 5 4 4 4 3 3 3 3 3 2 2 2 2 2 2 2 2 2
9 8 7 6 5 3 2 2 4 5 5 5 6 6 5 5 5 5 4 4 5 5 5 5 5 5 4 4 4 3 3 3 2 2 2 2 1 2 2 2 2 2 2
9 8 7 6 5 3 1 2 4 5 5 5 5 5 5 4 4 4 4 4 4 4 5 5 5 5 4 4 3 3 2 2 2 2 1 1 2 2 2 2 1 1 2
9 8 7 6 4 3 1 1 3 4 5 5 5 5 4 4 4 4 4 4 4 4 4 4 5 4 4 3 3 2 2 1 1 1 1 1 1 1 2 2 1 1 1
10 9 7 6 5 4 1 0 2 3 4 5 5 4 4 4 4 4 4 4 3 3 4 4 4 4 3 3 2 2 2 1 1 1 1 2 1 1 1 1 2 1 1
11 10 9 7 6 5 2 0 2 3 3 5 5 4 4 4 4 4 4 4 3 3 3 3 3 3 3 3 2 2 1 1 1 0 1 1 1 1 1 1 1 1 2
11 10 9 8 8 7 4 1 2 3 4 5 6 5 5 5 5 5 4 4 3 3 2 2 2 2 2 2 2 1 1 0 1 1 1 1 1 1 1 1 2 2 2
12 11 10 9 8 7 5 2 2 2 3 5 6 6 6 6 6 6 5 5 4 3 2 2 2 2 2 2 2 1 0 0 1 1 1 1 2 2 2 2 2 2 2
13 12 11 10 9 7 6 3 1 2 3 4 5 6 6 6 6 6 6 5 4 3 3 2 2 2 2 2 2 1 1 1 0 0 0 0 1 2 2 2 2 2 3
13 12 11 10 9 7 5 4 2 2 3 3 5 6 7 7 6 7 7 6 6 5 4 3 3 2 2 2 2 1 1 0 0 0 1 1 1 2 2 3 3 3 3
13 12 10 9 9 7 6 5 3 2 3 3 4 5 7 7 7 7 7 7 6 5 4 4 3 3 3 3 2 1 1 1 1 1 2 2 2 2 2 3 4 4 4
12 11 9 8 8 8 6 5 4 3 3 3 4 6 7 8 8 8 8 8 7 6 5 5 4 4 3 3 2 2 2 2 2 2 2 3 3 3 4 4 4 5 5
11 10 9 8 8 8 6 5 4 4 3 3 4 5 6 7 7 8 8 8 8 8 7 6 5 4 4 4 3 3 3 3 4 4 4 4 4 4 4 4 5 5 5
10 9 9 9 9 7 6 5 4 4 4 5 5 6 6 7 8 8 8 8 8 9 8 8 7 6 6 5 5 4 4 4 5 5 5 5 5 5 6 6 6 6 6
10 10 9 9 9 8 7 6 6 5 6 5 6 7 7 6 7 8 9 9 8 9 9 9 8 7 7 7 7 6 6 6 6 6 7 7 7 7 7 7 8 8 7
10 9 8 8 8 7 7 7 6 6 6 6 7 8 8 8 8 9 10 10 10 10 10 10 10 9 9 8 8 8 8 8 8 8 8 9 9 9 9 9 9 10 10
10 9 8 8 7 7 7 7 7 6 6 7 7 7 8 8 9 9 10 11 11 11 12 12 12 11 11 10 10 10 10 10 10 10 10 11 11 11 11 11 11 12 12
Wind_Direction
97 99 105 115 123 127 126 123 118 116 113 110 107 103 100 99 97 95 96 97 96 96 94 93 91 93 92 89 92 89 89 92 99 100 99 103 123 129 125 120 119 128 123
94 97 104 115 124 128 127 124 120 116 116 114 109 105 102 100 99 98 98 97 97 98 97 96 97 96 94 88 93 95 101 98 99 102 102 105 115 124 125 122 122 130 128
85 95 106 116 124 129 129 126 121 117 115 115 112 108 105 103 103 101 99 99 99 101 101 102 103 101 98 99 100 102 107 102 104 104 103 106 116 114 121 120 125 130 128
77 89 100 112 128 133 132 129 123 120 118 118 116 113 109 106 105 103 101 101 100 100 101 107 106 105 102 107 109 111 110 106 105 102 97 100 111 121 122 126 131 136 137
72 81 92 110 130 137 133 130 129 126 124 123 121 117 114 111 108 107 104 103 105 104 100 100 101 102 105 109 111 115 113 110 107 107 102 102 111 125 129 127 134 140 138
70 77 85 108 126 136 139 138 135 131 129 128 125 122 119 114 109 108 108 105 106 105 103 102 103 103 107 113 116 121 123 117 112 113 112 111 115 125 128 132 137 138 142
62 65 70 93 122 133 139 143 142 136 132 132 129 125 121 119 113 110 111 109 106 106 106 102 102 105 103 108 118 122 126 123 116 119 117 120 122 123 124 131 141 140 142
52 51 55 72 108 133 146 149 151 149 142 138 133 128 125 122 119 116 114 111 108 108 108 103 101 105 104 112 122 122 126 128 125 126 122 127 131 134 131 133 145 149 151
45 42 43 53 85 113 154 164 162 159 155 150 142 135 130 126 125 121 118 113 111 109 110 108 104 103 101 103 115 117 121 125 128 130 131 140 140 143 147 145 147 146 147
39 38 38 45 48 67 153 173 174 169 165 160 153 145 137 130 130 126 122 116 111 111 111 112 111 109 101 99 106 112 117 128 134 134 137 149 150 156 157 145 148 149 140
35 33 36 39 41 57 117 162 176 175 169 166 159 153 146 141 138 134 127 121 113 113 114 113 113 110 101 101 105 109 114 126 136 138 138 154 161 161 149 140 138 154 158
29 27 27 29 29 36 97 164 177 178 177 171 166 161 156 147 148 142 135 129 122 116 114 112 109 106 103 102 104 109 111 123 132 140 159 170 179 175 168 161 160 164 180
23 21 22 24 21 27 45 169 184 181 183 181 181 174 169 166 163 155 153 144 132 122 120 118 109 109 104 106 104 95 104 128 155 178 185 180 187 192 198 202 209 202 217
19 17 17 16 16 21 40 95 189 181 188 192 189 178 175 178 177 174 165 150 138 129 127 122 116 116 112 116 110 101 103 91 128 214 208 185 189 208 229 233 232 236 252
14 11 11 8 9 8 9 4 193 194 199 203 201 189 183 180 180 180 169 163 154 140 134 128 126 127 125 128 126 114 114 103 127 205 184 190 202 211 232 249 247 248 256
10 7 3 1 357 356 352 314 247 213 211 214 213 208 202 194 190 186 183 176 174 167 166 164 156 137 131 136 136 133 154 151 151 152 183 208 219 226 238 253 264 274 275
7 2 360 1 356 355 355 339 250 207 214 219 216 215 211 204 198 198 200 194 188 184 184 189 183 158 155 150 151 154 105 112 141 135 178 224 226 230 246 260 263 265 272
2 356 354 356 356 355 355 342 305 241 228 223 216 215 215 210 202 202 202 199 195 191 183 184 186 173 162 157 151 149 113 69 117 130 271 252 232 234 247 264 270 264 264
358 353 349 351 352 355 358 345 312 274 249 234 219 218 215 212 207 204 204 203 199 195 189 182 179 174 166 163 161 175 204 16 32 357 336 312 263 251 248 259 268 267 266
352 352 349 350 348 346 347 347 323 278 253 235 222 217 213 212 211 209 210 211 207 204 196 187 182 180 178 183 198 222 245 248 266 299 297 286 274 274 267 264 266 267 267
345 349 351 347 351 349 342 338 321 292 256 239 224 222 220 214 214 216 215 217 217 213 208 202 201 204 203 208 223 237 251 256 270 289 286 281 276 278 278 271 265 267 268
343 344 345 346 345 346 341 329 319 301 264 245 237 232 225 218 219 224 219 218 218 220 223 221 219 218 224 229 237 242 252 264 274 279 283 276 274 278 277 274 267 266 269
337 337 340 337 339 340 339 328 317 305 277 256 243 238 235 228 228 229 226 227 228 226 227 229 233 233 236 240 245 249 254 264 272 278 279 277 275 276 275 272 271 267 265
329 329 333 336 333 329 325 318 310 293 281 272 253 244 238 237 234 231 234 233 232 229 230 231 233 238 241 245 248 252 260 264 270 274 277 277 277 278 274 271 270 271 270
326 330 328 330 332 328 321 318 312 297 281 277 262 251 244 245 244 241 237 236 237 236 235 236 236 241 244 247 251 257 260 263 267 273 276 276 275 275 275 273 274 275 275
332 334 332 329 330 331 326 321 319 303 286 279 265 256 250 250 248 250 243 239 240 240 240 242 242 245 247 249 252 259 264 267 267 270 274 277 276 275 275 275 275 277 277